Change the Weather History Date:

Wednesday, November 7, 2012

  Actual Average Record
Temperature  
Mean Temperature 58 °F 58 °F  
Max Temperature 77 °F 74 °F 92 °F (2006)
Min Temperature 38 °F 42 °F 33 °F (1994)
Degree Days  
Heating Degree Days 7 7  
Month to date heating degree days 29 46  
Since 1 July heating degree days 109 165  
Cooling Degree Days 0 0  
Month to date cooling degree days 3 4  
Year to date cooling degree days 1035 848  
Growing Degree Days 9 (Base 50)    
Moisture  
Dew Point 44 °F    
Average Humidity 54    
Maximum Humidity 83    
Minimum Humidity 24    
Precipitation  
Precipitation 0.00 in 0.04 in 0.25 in (2004)
Month to date precipitation 0.00 0.33  
Year to date precipitation 7.82 12.95  
Since 1 July precipitation 0.90 1.62  
Snow  
Snow 0.00 in - - ()
Month to date snowfall 0.0  
Year to date snowfall 0.0  
Since 1 July snowfall 0.0  
Snow Depth 0.00 in    
Sea Level Pressure  
Sea Level Pressure 30.01 in    
Wind  
Wind Speed 4 mph (WNW)    
Max Wind Speed 13 mph    
Max Gust Speed 22 mph    
Visibility 7 miles    
Events Fog    
T = Trace of Precipitation, MM = Missing Value Source: NWS Daily Summary

Daily Weather History Graph

Daily Weather History Graph

Search for Another Location

Airport or City:

Trip Planner

Search our weather history database for the weather conditions in past years. The results will help you decide how hot, cold, wet, or windy it might be!

Date:

Astronomy

Nov. 07, 2012 Rise Set
Actual Time 6:11 AM PST 4:50 PM PST
Civil Twilight 5:45 AM PST 5:16 PM PST
Nautical Twilight 5:16 AM PST 5:46 PM PST
Astronomical Twilight 4:47 AM PST 6:15 PM PST
Moon No Moon Rise 12:43 PM PST (11/7)
Length of Visible Light 11h 30m
Length of Day
10h 39m
Last Quarter, 42% of the Moon is Illuminated
Nov 7
Last Quarter
Nov 13
New
Nov 20
First Quarter
Nov 28
Full
Dec 6
Last Quarter

Hourly Weather History & Observations

Time (PST) Temp. Windchill Dew Point Humidity Pressure Visibility Wind Dir Wind Speed Gust Speed Precip Events Conditions
12:53 AM 45.0 °F - 39.0 °F 80% 30.05 in 10.0 mi Calm Calm - N/A   Clear
1:53 AM 43.0 °F - 37.9 °F 82% 30.04 in 10.0 mi Calm Calm - N/A   Clear
2:53 AM 43.0 °F - 37.0 °F 80% 30.03 in 10.0 mi Calm Calm - N/A   Clear
3:53 AM 42.1 °F - 36.0 °F 79% 30.03 in 10.0 mi Calm Calm - N/A   Clear
4:53 AM 42.1 °F - 37.0 °F 82% 30.04 in 10.0 mi Calm Calm - N/A   Clear
5:53 AM 41.0 °F - 36.0 °F 82% 30.05 in 10.0 mi Calm Calm - N/A   Clear
6:53 AM 45.0 °F - 37.9 °F 76% 30.06 in 10.0 mi Calm Calm - N/A   Clear
7:53 AM 57.0 °F - 41.0 °F 55% 30.06 in 10.0 mi Calm Calm - N/A   Clear
8:53 AM 69.1 °F - 37.9 °F 32% 30.05 in 10.0 mi Calm Calm - N/A   Clear
9:53 AM 77.0 °F - 37.0 °F 24% 30.03 in 10.0 mi Variable 4.6 mph - N/A   Clear
10:53 AM 75.9 °F - 39.9 °F 27% 30.02 in 10.0 mi WNW 9.2 mph - N/A   Clear
11:53 AM 75.9 °F - 46.9 °F 36% 30.00 in 10.0 mi WNW 11.5 mph - N/A   Clear
12:53 PM 77.0 °F - 46.9 °F 34% 29.98 in 10.0 mi WNW 10.4 mph - N/A   Clear
1:53 PM 75.0 °F - 48.9 °F 40% 29.97 in 10.0 mi West 10.4 mph - N/A   Clear
2:53 PM 73.0 °F - 48.9 °F 42% 29.96 in 10.0 mi West 9.2 mph - N/A   Clear
3:53 PM 71.1 °F - 46.9 °F 42% 29.96 in 10.0 mi WNW 8.1 mph - N/A   Clear
4:53 PM 62.1 °F - 48.9 °F 62% 29.97 in 10.0 mi WNW 6.9 mph - N/A   Clear
5:53 PM 55.9 °F - 48.9 °F 77% 29.98 in 10.0 mi West 4.6 mph - N/A   Clear
6:53 PM 53.1 °F - 48.0 °F 83% 29.99 in 10.0 mi Calm Calm - N/A   Clear
7:53 PM 50.0 °F - 46.0 °F 86% 29.98 in 10.0 mi Calm Calm - N/A   Clear
8:53 PM 46.0 °F - 44.1 °F 93% 29.98 in 9.0 mi Calm Calm - N/A   Clear
9:53 PM 45.0 °F - 42.1 °F 90% 29.98 in 10.0 mi Calm Calm - N/A   Clear
10:34 PM 46.4 °F 45.2 °F 44.6 °F 93% 30.01 in 2.0 mi West 3.5 mph - N/A   Scattered Clouds
10:36 PM 46.4 °F 44.3 °F 44.6 °F 93% 30.01 in 1.0 mi West 4.6 mph - N/A   Mist
10:46 PM 44.6 °F - 44.6 °F 100% 30.01 in 2.0 mi Calm Calm - N/A   Mostly Cloudy
10:51 PM 46.4 °F 45.2 °F 44.6 °F 93% 30.01 in 1.0 mi WNW 3.5 mph - N/A   Mist
10:53 PM 46.9 °F - 46.0 °F 97% 29.98 in 0.5 mi NW 3.5 mph - N/A Fog Fog
11:06 PM 48.2 °F - 48.2 °F 100% 30.02 in 2.5 mi Calm Calm - N/A   Overcast
11:13 PM 48.2 °F - 46.4 °F 93% 30.01 in 3.0 mi Calm Calm - N/A   Overcast
11:19 PM 48.2 °F - 48.2 °F 100% 30.00 in 1.8 mi ENE 3.5 mph - N/A   Overcast
11:28 PM 51.8 °F - 48.2 °F 88% 30.01 in 3.0 mi Calm Calm - N/A   Overcast
11:39 PM 50.0 °F - 48.2 °F 94% 30.00 in 1.8 mi Calm Calm - N/A   Overcast
11:45 PM 50.0 °F - 48.2 °F 94% 30.00 in 0.8 mi Calm Calm - N/A   Mist
11:53 PM 48.9 °F - 48.0 °F 97% 29.98 in 0.2 mi Calm Calm - N/A Fog Fog